Weather History for Myrtle Beach, SC

Change the Weather History Date:

Tuesday, March 5, 2013

  Actual Average Record
Temperature  
Mean Temperature 50 °F -  
Max Temperature 62 °F 59 °F 80 °F (1955)
Min Temperature 39 °F 40 °F 24 °F (2002)
Degree Days  
Heating Degree Days 14    
Moisture  
Dew Point 40 °F    
Average Humidity 69    
Maximum Humidity 87    
Minimum Humidity 51    
Precipitation  
Precipitation 0.02 in - - ()
Sea Level Pressure  
Sea Level Pressure 30.00 in    
Wind  
Wind Speed 7 mph (SSW)    
Max Wind Speed 20 mph    
Max Gust Speed 29 mph    
Visibility 10 miles    
Events      
Averages and records for this station are not official NWS values.
T = Trace of Precipitation, MM = Missing Value Source: NWS Daily Summary

Daily Weather History Graph

Daily Weather History Graph

Search for Another Location

Airport:

Trip Planner

Search our weather history database for the weather conditions in past years. The results will help you decide how hot, cold, wet, or windy it might be!

Date:

Astronomy

Mar. 05, 2013 Rise Set
Actual Time 6:38 AM EST 6:15 PM EST
Civil Twilight 6:13 AM EST 6:40 PM EST
Nautical Twilight 5:45 AM EST 7:09 PM EST
Astronomical Twilight 5:16 AM EST 7:38 PM EST
Moon 1:36 AM EST (3/5) 12:05 PM EST (3/5)
Length of Visible Light 12h 26m
Length of Day
11h 36m
Last Quarter, 41% of the Moon is Illuminated
Mar 5
Last Quarter
Mar 11
New
Mar 19
First Quarter
Mar 27
Full
Apr 3
Last Quarter

Hourly Weather History & Observations

Time (EST) Temp. Windchill Dew Point Humidity Pressure Visibility Wind Dir Wind Speed Gust Speed Precip Events Conditions
12:15 AM 39.2 °F - 28.4 °F 65% 30.12 in 7.0 mi Calm Calm - N/A   Clear
12:35 AM 39.2 °F 35.9 °F 28.4 °F 65% 30.11 in 10.0 mi SSW 4.6 mph - N/A   Clear
12:55 AM 39.2 °F 37.0 °F 28.4 °F 65% 30.11 in 10.0 mi SW 3.5 mph - N/A   Clear
1:15 AM 39.2 °F 35.0 °F 30.2 °F 70% 30.11 in 5.0 mi SW 5.8 mph - N/A   Clear
2:35 AM 39.2 °F 35.9 °F 30.2 °F 70% 30.10 in 10.0 mi WSW 4.6 mph - N/A   Clear
2:55 AM 41.0 °F 35.8 °F 33.8 °F 76% 30.11 in 10.0 mi WSW 8.1 mph - N/A   Clear
3:15 AM 41.0 °F 37.1 °F 33.8 °F 76% 30.11 in 10.0 mi WSW 5.8 mph - N/A   Clear
3:35 AM 39.2 °F 35.9 °F 32.0 °F 75% 30.11 in 10.0 mi WSW 4.6 mph - N/A   Clear
3:55 AM 39.2 °F 37.0 °F 32.0 °F 75% 30.11 in 10.0 mi SW 3.5 mph - N/A   Clear
4:15 AM 39.2 °F 37.0 °F 33.8 °F 81% 30.11 in 10.0 mi WSW 3.5 mph - N/A   Scattered Clouds
4:35 AM 39.2 °F 35.0 °F 30.2 °F 70% 30.12 in 10.0 mi WSW 5.8 mph - N/A   Partly Cloudy
4:55 AM 41.0 °F 37.1 °F 35.6 °F 81% 30.12 in 10.0 mi SW 5.8 mph - N/A   Clear
5:15 AM 39.2 °F 37.0 °F 33.8 °F 81% 30.13 in 10.0 mi SW 3.5 mph - N/A   Clear
5:35 AM 39.2 °F - 33.8 °F 81% 30.13 in 10.0 mi Calm Calm - N/A   Clear
6:45 AM 39.2 °F 34.2 °F 35.6 °F 87% 30.13 in 7.0 mi South 6.9 mph - N/A   Clear
7:45 AM 48.2 °F - 41.0 °F 76% 30.11 in 7.0 mi SSW 8.1 mph - N/A   Mostly Cloudy
8:50 AM 53.6 °F - 42.8 °F 67% 30.12 in 10.0 mi SW 9.2 mph - N/A   Scattered Clouds
9:46 AM 57.2 °F - 44.6 °F 63% 30.09 in 10.0 mi South 11.5 mph - N/A   Scattered Clouds
10:45 AM 62.6 °F - 44.6 °F 52% 30.06 in 10.0 mi South 13.8 mph - N/A   Scattered Clouds
11:45 AM 59.0 °F - 44.6 °F 59% 30.04 in 10.0 mi SSW 17.3 mph - N/A   Mostly Cloudy
12:50 PM 60.8 °F - 42.8 °F 52% 30.00 in 10.0 mi SSW 15.0 mph - N/A   Mostly Cloudy
1:50 PM 59.0 °F - 46.4 °F 63% 30.00 in 10.0 mi SSW 6.9 mph 17.3 mph N/A   Mostly Cloudy
2:50 PM 60.8 °F - 42.8 °F 52% 29.93 in 10.0 mi South 19.6 mph - N/A   Mostly Cloudy
3:45 PM 59.0 °F - 41.0 °F 51% 29.91 in 10.0 mi South 19.6 mph - N/A   Mostly Cloudy
4:50 PM 59.0 °F - 42.8 °F 55% 29.89 in 10.0 mi SSW 16.1 mph - N/A   Mostly Cloudy
5:45 PM 57.2 °F - 42.8 °F 59% 29.87 in 10.0 mi SSW 17.3 mph 21.9 mph N/A   Mostly Cloudy
6:50 PM 57.2 °F - 44.6 °F 63% 29.85 in 10.0 mi SSW 15.0 mph 19.6 mph N/A   Mostly Cloudy
7:45 PM 57.2 °F - 46.4 °F 67% 29.81 in 10.0 mi SSW 11.5 mph - N/A   Mostly Cloudy
8:45 PM 55.4 °F - 50.0 °F 82% 29.76 in 10.0 mi South 16.1 mph - N/A   Partly Cloudy
9:45 PM 57.2 °F - 50.0 °F 77% 29.72 in 10.0 mi SSW 17.3 mph 23.0 mph N/A   Clear
11:15 PM 59.0 °F - 53.6 °F 82% 29.67 in 10.0 mi South 16.1 mph 28.8 mph N/A   Mostly Cloudy
11:35 PM 60.8 °F - 53.6 °F 77% 29.67 in 10.0 mi SSW 10.4 mph 26.5 mph N/A   Mostly Cloudy
11:55 PM 62.6 °F - 51.8 °F 68% 29.67 in 10.0 mi SW 16.1 mph 28.8 mph N/A   Mostly Cloudy